Yuma MCAS, AZ

12:54 PM MST on August 21, 2017 (GMT -0700)
Yuma Marine Corps Air Station

Weather History for KNYL - September, 2014

Change the Weather History Date:

Sunday, September 14, 2014

  Actual Average Record
Temperature  
Mean Temperature 98 °F 90 °F  
Max Temperature 108 °F 102 °F 112 °F (2000)
Min Temperature 88 °F 78 °F 56 °F (1893)
Degree Days  
Heating Degree Days 0 0  
Month to date heating degree days 0 0  
Since 1 July heating degree days 0 0  
Cooling Degree Days 33 25  
Month to date cooling degree days 412 373  
Year to date cooling degree days 4248 3826  
Growing Degree Days 48 (Base 50)    
Moisture  
Dew Point 56 °F    
Average Humidity 29    
Maximum Humidity 41    
Minimum Humidity 17    
Precipitation  
Precipitation 0.00 in 0.02 in 0.56 in (1997)
Month to date precipitation 1.44 0.25  
Year to date precipitation 2.28 2.34  
Sea Level Pressure  
Sea Level Pressure 29.69 in    
Wind  
Wind Speed 8 mph (East)    
Max Wind Speed 21 mph    
Max Gust Speed 26 mph    
Visibility 10 miles    
Events      
T = Trace of Precipitation, MM = Missing Value Source: NWS Daily Summary

Daily Weather History Graph

Daily Weather History Graph

Search for Another Location

Airport or City:

Trip Planner

Search our weather history database for the weather conditions in past years. The results will help you decide how hot, cold, wet, or windy it might be!

Date:

Astronomy

Sep. 14, 2014 Rise Set
Actual Time 6:21 AM MST 6:45 PM MST
Civil Twilight 5:56 AM MST 7:10 PM MST
Nautical Twilight 5:27 AM MST 7:39 PM MST
Astronomical Twilight 4:58 AM MST 8:08 PM MST
Moon 11:00 PM MST (9/14) 12:12 PM MST (9/14)
Length of Visible Light 13h 13m
Length of Day
12h 24m
Waning Gibbous, 63% of the Moon is Illuminated
Sep 14
Waning Gibbous
Sep 15
Last Quarter
Sep 23
New
Oct 1
First Quarter
Oct 8
Full

Hourly Weather History & Observations

Time (MST) Temp. Heat Index Dew Point Humidity Pressure Visibility Wind Dir Wind Speed Gust Speed Precip Events Conditions
12:57 AM 91.9 °F 91.8 °F 61.0 °F 35% 29.68 in 10.0 mi SSE 4.6 mph - N/A   Clear
1:57 AM 90.0 °F 90.3 °F 62.1 °F 39% 29.68 in 10.0 mi North 4.6 mph - N/A   Clear
2:57 AM 89.1 °F 89.3 °F 62.1 °F 40% 29.68 in 10.0 mi NNE 5.8 mph - N/A   Clear
3:57 AM 90.0 °F 88.8 °F 57.9 °F 34% 29.67 in 10.0 mi NE 6.9 mph - N/A   Clear
4:57 AM 89.1 °F 87.7 °F 57.0 °F 34% 29.68 in 10.0 mi NE 6.9 mph - N/A   Clear
5:57 AM 91.9 °F 90.0 °F 55.0 °F 29% 29.69 in 10.0 mi East 11.5 mph - N/A   Clear
6:57 AM 91.9 °F 90.0 °F 55.0 °F 29% 29.71 in 10.0 mi East 12.7 mph - N/A   Clear
7:57 AM 93.9 °F 92.0 °F 55.0 °F 27% 29.73 in 10.0 mi East 16.1 mph - N/A   Clear
8:57 AM 96.1 °F 94.1 °F 55.0 °F 25% 29.74 in 10.0 mi East 17.3 mph - N/A   Clear
9:57 AM 99.0 °F 97.3 °F 55.0 °F 23% 29.75 in 10.0 mi East 16.1 mph - N/A   Clear
10:57 AM 102.0 °F 100.6 °F 55.0 °F 21% 29.74 in 10.0 mi East 12.7 mph - N/A   Clear
11:57 AM 102.9 °F 101.4 °F 55.0 °F 20% 29.73 in 10.0 mi East 11.5 mph - N/A   Clear
12:57 PM 104.0 °F 102.9 °F 55.0 °F 20% 29.71 in 10.0 mi NE 6.9 mph - N/A   Clear
1:57 PM 106.0 °F 105.1 °F 55.0 °F 19% 29.69 in 10.0 mi ESE 8.1 mph - N/A   Clear
2:57 PM 107.1 °F 105.4 °F 54.0 °F 17% 29.66 in 10.0 mi NE 6.9 mph - N/A   Clear
3:57 PM 107.1 °F 105.4 °F 54.0 °F 17% 29.65 in 10.0 mi East 5.8 mph - N/A   Clear
4:57 PM 108.0 °F 105.9 °F 53.1 °F 16% 29.64 in 10.0 mi ENE 5.8 mph - N/A   Clear
5:57 PM 106.0 °F 103.9 °F 53.1 °F 17% 29.64 in 10.0 mi Calm Calm - N/A   Clear
6:57 PM 104.0 °F 102.3 °F 54.0 °F 19% 29.64 in 10.0 mi South 4.6 mph - N/A   Clear
7:57 PM 100.0 °F 99.2 °F 57.0 °F 24% 29.65 in 10.0 mi SW 4.6 mph - N/A   Clear
8:57 PM 100.0 °F 98.8 °F 55.9 °F 23% 29.67 in 10.0 mi Calm Calm - N/A   Clear
9:57 PM 97.0 °F 95.0 °F 55.0 °F 24% 29.69 in 10.0 mi WSW 5.8 mph - N/A   Clear
10:57 PM 95.0 °F 94.8 °F 60.1 °F 31% 29.70 in 10.0 mi WSW 3.5 mph - N/A   Clear
11:57 PM 93.0 °F 93.8 °F 62.1 °F 36% 29.71 in 10.0 mi SE 3.5 mph - N/A   Clear